Zurück zum Katalog

AYAME 2

ECS-2

AktivKommunikationHEO
NORAD 11715·PAYLOAD·🇯🇵 Japan

Gestartet Feb 22, 1980 von Tanegashima Space Center

Loading…

Nächste Überflüge (nächste 24 Stunden)

TLE

AktuellSource: Space-Track

Epoche: Sep 14, 2026, 09:30 UTC

1 11715U 80018A   26257.39645762 -.00000157  00000-0  00000-0 0  9990
2 11715   9.6302  30.7916 4373853 309.5573  16.8387  1.75493936236593

Verfolge AYAME 2 in Echtzeit mit AllMySat

Download on the App Store